Custer, SD

6:27 AM MST on November 23, 2017 (GMT -0700)
Custer County

Weather History for KCUT - November, 2011

Change the Weather History Date:

Wednesday, November 9, 2011

  Actual Average Record
Temperature  
Mean Temperature 28 °F 34 °F  
Max Temperature 37 °F 45 °F 69 °F (1978)
Min Temperature 18 °F 24 °F -15 °F (1986)
Degree Days  
Heating Degree Days 37 30  
Month to date heating degree days 303 259  
Since 1 July heating degree days 1268 1438  
Cooling Degree Days 0 0  
Month to date cooling degree days 0 0  
Year to date cooling degree days 267 177  
Moisture  
Dew Point 14 °F    
Average Humidity 55    
Maximum Humidity 74    
Minimum Humidity 35    
Precipitation  
Precipitation 0.00 in 0.02 in 0.24 in (1946)
Month to date precipitation 0.21 0.21  
Year to date precipitation 20.23 18.17  
Sea Level Pressure  
Sea Level Pressure 30.39 in    
Wind  
Wind Speed 6 mph (WNW)    
Max Wind Speed 23 mph    
Max Gust Speed 31 mph    
Visibility 10 miles    
Events      
T = Trace of Precipitation, MM = Missing Value Source: NWS Daily Summary

Daily Weather History Graph

Daily Weather History Graph

Search for Another Location

Airport or City:

Trip Planner

Search our weather history database for the weather conditions in past years. The results will help you decide how hot, cold, wet, or windy it might be!

Date:

Astronomy

Nov. 09, 2011 Rise Set
Actual Time 6:40 AM MST 4:35 PM MST
Civil Twilight 6:10 AM MST 5:05 PM MST
Nautical Twilight 5:35 AM MST 5:40 PM MST
Astronomical Twilight 5:02 AM MST 6:13 PM MST
Moon 3:48 PM MST (11/9) 5:38 AM MST (11/9)
Length of Visible Light 10h 55m
Length of Day
9h 54m
Waxing Gibbous, 99% of the Moon is Illuminated
Nov 9
Waxing Gibbous
Nov 10
Full
Nov 18
Last Quarter
Nov 24
New
Dec 2
First Quarter

Hourly Weather History & Observations

Time (MST) Temp. Windchill Dew Point Humidity Pressure Visibility Wind Dir Wind Speed Gust Speed Precip Events Conditions
12:53 AM 21.9 °F - 12.9 °F 68% 30.33 in 10.0 mi Calm Calm - N/A   Clear
1:53 AM 26.1 °F 18.4 °F 15.1 °F 63% 30.33 in 10.0 mi WNW 6.9 mph - N/A   Clear
2:53 AM 27.0 °F 20.5 °F 16.0 °F 63% 30.35 in 10.0 mi WNW 5.8 mph - N/A   Clear
3:53 AM 27.0 °F 21.6 °F 16.0 °F 63% 30.34 in 10.0 mi WNW 4.6 mph - N/A   Clear
4:53 AM 25.0 °F 20.7 °F 16.0 °F 69% 30.38 in 10.0 mi WNW 3.5 mph - N/A   Clear
5:53 AM 25.0 °F 17.1 °F 17.1 °F 72% 30.40 in 10.0 mi WNW 6.9 mph - N/A   Overcast
6:53 AM 26.1 °F 18.4 °F 18.0 °F 71% 30.42 in 10.0 mi WNW 6.9 mph - N/A   Scattered Clouds
7:53 AM 28.0 °F 21.7 °F 19.0 °F 69% 30.43 in 10.0 mi WNW 5.8 mph - N/A   Clear
8:53 AM 30.9 °F 22.8 °F 18.0 °F 59% 30.45 in 10.0 mi North 9.2 mph - N/A   Partly Cloudy
9:53 AM 33.1 °F 26.9 °F 14.0 °F 46% 30.46 in 10.0 mi Variable 6.9 mph 18.4 mph N/A   Partly Cloudy
10:53 AM 34.0 °F 25.0 °F 12.0 °F 40% 30.43 in 10.0 mi NW 12.7 mph 19.6 mph N/A   Overcast
11:53 AM 35.1 °F 25.9 °F 12.9 °F 40% 30.41 in 10.0 mi WNW 13.8 mph 24.2 mph N/A   Overcast
12:53 PM 36.0 °F 26.7 °F 12.9 °F 39% 30.41 in 10.0 mi West 15.0 mph 26.5 mph N/A   Mostly Cloudy
1:53 PM 34.0 °F 27.2 °F 12.0 °F 40% 30.39 in 10.0 mi NW 8.1 mph 18.4 mph N/A   Mostly Cloudy
2:53 PM 35.1 °F 26.4 °F 10.9 °F 37% 30.37 in 10.0 mi West 12.7 mph 24.2 mph N/A   Mostly Cloudy
3:53 PM 33.1 °F 25.5 °F 12.0 °F 42% 30.39 in 10.0 mi NW 9.2 mph 17.3 mph N/A   Clear
4:53 PM 30.0 °F 21.7 °F 10.9 °F 45% 30.40 in 10.0 mi WNW 9.2 mph - N/A   Clear
5:53 PM 28.9 °F 23.9 °F 12.0 °F 49% 30.40 in 10.0 mi WNW 4.6 mph - N/A   Clear
6:53 PM 27.0 °F - 12.0 °F 53% 30.40 in 10.0 mi Calm Calm - N/A   Clear
7:53 PM 25.0 °F - 12.0 °F 58% 30.40 in 10.0 mi Calm Calm - N/A   Clear
8:53 PM 24.1 °F - 12.9 °F 62% 30.37 in 10.0 mi Calm Calm - N/A   Clear
9:53 PM 21.9 °F 15.7 °F 12.9 °F 68% 30.38 in 10.0 mi SSW 4.6 mph - N/A   Clear
10:53 PM 21.0 °F 14.6 °F 12.9 °F 71% 30.37 in 10.0 mi WSW 4.6 mph - N/A   Clear
11:53 PM 24.1 °F 19.7 °F 12.9 °F 62% 30.35 in 10.0 mi Variable 3.5 mph - N/A   Clear